Terminal Aerodrome Forecast
Issued by NWS Columbia, SC

Home | Current Version | Previous Version | Text Only | Print | Product List | Glossary On
Versions: 1 2 3 4 5 6 7 8 9 10 11 12 13 14 15 16 17 18 19 20 21 22 23 24 25 26 27 28 29 30 31 32 33 34 35 36 37 38
000
FTUS42 KCAE 301000 AAC
TAFAGS
TAF AMD
KAGS 301053Z 3011/3106 00000KT 6SM BR SKC
      TEMPO 3011/3013 4SM BR
     FM301300 12004KT P6SM SCT080
     FM301500 12004KT P6SM SCT045=

USA.gov is the U.S. government's official web portal to all federal, state and local government web resources and services.